Time,TemperatureF,DewpointF,PressureIn,WindDirection,WindDirectionDegrees,WindSpeedMPH,WindSpeedGustMPH,Humidity,HourlyPrecipIn,Conditions,Clouds,dailyrainin,SoftwareType,DateUTC
2013-07-23 00:00:00,85.8,72.7,29.88,SSW,196,4.0,6.0,65,0.00,,,0.00,Wunderground v.1.15,2013-07-23 05:00:00,
2013-07-23 00:10:00,85.6,72.5,29.88,South,174,3.0,3.0,65,0.00,,,0.00,Wunderground v.1.15,2013-07-23 05:10:00,
2013-07-23 00:15:00,85.4,72.7,29.88,South,178,3.0,9.0,66,0.00,,,0.00,Wunderground v.1.15,2013-07-23 05:15:00,
2013-07-23 00:20:00,85.4,72.7,29.88,South,187,4.0,6.0,66,0.00,,,0.00,Wunderground v.1.15,2013-07-23 05:20:00,
2013-07-23 00:25:00,85.3,73.1,29.88,SSE,161,4.0,13.0,67,0.00,,,0.00,Wunderground v.1.15,2013-07-23 05:25:00,
2013-07-23 00:35:00,85.1,72.9,29.88,SW,221,4.0,11.0,67,0.00,,,0.00,Wunderground v.1.15,2013-07-23 05:35:00,
2013-07-23 00:40:00,85.2,73.0,29.88,South,182,6.0,6.0,67,0.00,,,0.00,Wunderground v.1.15,2013-07-23 05:40:00,
2013-07-23 00:45:00,85.1,72.9,29.88,SSW,198,7.0,11.0,67,0.00,,,0.00,Wunderground v.1.15,2013-07-23 05:45:00,
2013-07-23 00:50:00,85.1,72.9,29.88,SW,215,6.0,6.0,67,0.00,,,0.00,Wunderground v.1.15,2013-07-23 05:50:00,
2013-07-23 01:00:00,85.0,72.8,29.88,SSW,196,6.0,9.0,67,0.00,,,0.00,Wunderground v.1.15,2013-07-23 06:00:00,
2013-07-23 01:10:00,84.9,72.7,29.88,South,190,5.0,10.0,67,0.00,,,0.00,Wunderground v.1.15,2013-07-23 06:10:00,
2013-07-23 01:15:00,84.8,72.6,29.88,South,184,5.0,10.0,67,0.00,,,0.00,Wunderground v.1.15,2013-07-23 06:15:00,
2013-07-23 01:20:00,84.7,72.5,29.87,SSW,194,5.0,8.0,67,0.00,,,0.00,Wunderground v.1.15,2013-07-23 06:20:00,
2013-07-23 01:25:00,84.6,72.4,29.87,SSW,192,6.0,8.0,67,0.00,,,0.00,Wunderground v.1.15,2013-07-23 06:25:00,
2013-07-23 01:30:00,84.5,72.3,29.88,SSW,200,6.0,6.0,67,0.00,,,0.00,Wunderground v.1.15,2013-07-23 06:30:00,
2013-07-23 01:40:00,84.2,72.0,29.87,SSW,200,5.0,9.0,67,0.00,,,0.00,Wunderground v.1.15,2013-07-23 06:40:00,
2013-07-23 01:45:00,84.1,72.0,29.87,SSW,207,7.0,9.0,67,0.00,,,0.00,Wunderground v.1.15,2013-07-23 06:45:00,
2013-07-23 01:50:00,84.0,72.3,29.87,South,188,7.0,7.0,68,0.00,,,0.00,Wunderground v.1.15,2013-07-23 06:50:00,
2013-07-23 01:55:00,83.9,72.2,29.87,South,187,5.0,7.0,68,0.00,,,0.00,Wunderground v.1.15,2013-07-23 06:55:00,
2013-07-23 02:00:00,83.7,72.0,29.87,South,187,5.0,5.0,68,0.00,,,0.00,Wunderground v.1.15,2013-07-23 07:00:00,
2013-07-23 02:10:00,83.5,71.8,29.87,South,190,6.0,10.0,68,0.00,,,0.00,Wunderground v.1.15,2013-07-23 07:10:00,
2013-07-23 02:15:00,83.4,71.7,29.87,South,191,7.0,10.0,68,0.00,,,0.00,Wunderground v.1.15,2013-07-23 07:15:00,
2013-07-23 02:25:00,83.2,72.0,29.88,South,181,4.0,6.0,69,0.00,,,0.00,Wunderground v.1.15,2013-07-23 07:25:00,
2013-07-23 02:30:00,83.0,71.8,29.88,SSW,213,4.0,11.0,69,0.00,,,0.00,Wunderground v.1.15,2013-07-23 07:30:00,
2013-07-23 02:35:00,82.9,71.7,29.88,South,186,4.0,11.0,69,0.00,,,0.00,Wunderground v.1.15,2013-07-23 07:35:00,
2013-07-23 02:40:00,82.8,72.0,29.88,South,190,4.0,6.0,70,0.00,,,0.00,Wunderground v.1.15,2013-07-23 07:40:00,
2013-07-23 02:45:00,82.6,71.8,29.88,SSW,203,5.0,6.0,70,0.00,,,0.00,Wunderground v.1.15,2013-07-23 07:45:00,
2013-07-23 02:55:00,82.4,72.0,29.88,South,184,6.0,8.0,71,0.00,,,0.00,Wunderground v.1.15,2013-07-23 07:55:00,
2013-07-23 03:00:00,82.3,72.0,29.88,SW,221,6.0,6.0,71,0.00,,,0.00,Wunderground v.1.15,2013-07-23 08:00:00,
2013-07-23 03:10:00,82.0,72.1,29.88,South,186,4.0,11.0,72,0.00,,,0.00,Wunderground v.1.15,2013-07-23 08:10:00,
2013-07-23 03:15:00,81.9,72.0,29.88,SSW,192,3.0,11.0,72,0.00,,,0.00,Wunderground v.1.15,2013-07-23 08:15:00,
2013-07-23 03:20:00,81.7,72.2,29.88,South,178,5.0,6.0,73,0.00,,,0.00,Wunderground v.1.15,2013-07-23 08:20:00,
2013-07-23 03:25:00,81.6,72.1,29.88,SSW,204,5.0,6.0,73,0.00,,,0.00,Wunderground v.1.15,2013-07-23 08:25:00,
2013-07-23 03:35:00,81.4,72.3,29.88,SSW,195,4.0,4.0,74,0.00,,,0.00,Wunderground v.1.15,2013-07-23 08:35:00,
2013-07-23 03:40:00,81.3,72.2,29.88,SSW,192,3.0,3.0,74,0.00,,,0.00,Wunderground v.1.15,2013-07-23 08:40:00,
2013-07-23 03:45:00,81.2,72.5,29.87,SSW,194,4.0,4.0,75,0.00,,,0.00,Wunderground v.1.15,2013-07-23 08:45:00,
2013-07-23 03:50:00,81.0,72.3,29.87,South,185,4.0,4.0,75,0.00,,,0.00,Wunderground v.1.15,2013-07-23 08:50:00,
2013-07-23 03:55:00,80.9,72.2,29.88,SSW,213,4.0,4.0,75,0.00,,,0.00,Wunderground v.1.15,2013-07-23 08:55:00,
2013-07-23 04:00:00,80.8,72.5,29.88,SSW,203,4.0,6.0,76,0.00,,,0.00,Wunderground v.1.15,2013-07-23 09:00:00,
2013-07-23 04:10:00,80.6,72.3,29.88,SSW,213,5.0,5.0,76,0.00,,,0.00,Wunderground v.1.15,2013-07-23 09:10:00,
2013-07-23 04:20:00,80.4,72.5,29.88,South,182,5.0,7.0,77,0.00,,,0.00,Wunderground v.1.15,2013-07-23 09:20:00,
2013-07-23 04:25:00,80.3,72.8,29.87,SSW,203,4.0,7.0,78,0.00,,,0.00,Wunderground v.1.15,2013-07-23 09:25:00,
2013-07-23 04:30:00,80.2,72.7,29.87,South,190,3.0,5.0,78,0.00,,,0.00,Wunderground v.1.15,2013-07-23 09:30:00,
2013-07-23 04:35:00,80.1,72.6,29.87,SSW,212,4.0,5.0,78,0.00,,,0.00,Wunderground v.1.15,2013-07-23 09:35:00,
2013-07-23 04:40:00,79.9,72.8,29.87,SW,215,4.0,4.0,79,0.00,,,0.00,Wunderground v.1.15,2013-07-23 09:40:00,
2013-07-23 04:50:00,79.7,72.6,29.87,South,186,3.0,3.0,79,0.00,,,0.00,Wunderground v.1.15,2013-07-23 09:50:00,
2013-07-23 04:55:00,79.6,72.9,29.87,South,190,2.0,7.0,80,0.00,,,0.00,Wunderground v.1.15,2013-07-23 09:55:00,
2013-07-23 05:00:00,79.6,72.9,29.87,South,177,4.0,4.0,80,0.00,,,0.00,Wunderground v.1.15,2013-07-23 10:00:00,
2013-07-23 05:10:00,79.4,73.1,29.88,SSW,195,5.0,5.0,81,0.00,,,0.00,Wunderground v.1.15,2013-07-23 10:10:00,
2013-07-23 05:15:00,79.3,73.0,29.88,SSW,192,4.0,5.0,81,0.00,,,0.00,Wunderground v.1.15,2013-07-23 10:15:00,
2013-07-23 05:20:00,79.2,72.9,29.88,South,184,4.0,5.0,81,0.00,,,0.00,Wunderground v.1.15,2013-07-23 10:20:00,
2013-07-23 05:25:00,79.1,73.1,29.88,SSW,203,3.0,5.0,82,0.00,,,0.00,Wunderground v.1.15,2013-07-23 10:25:00,
2013-07-23 05:35:00,79.0,73.0,29.88,SSW,194,3.0,5.0,82,0.00,,,0.00,Wunderground v.1.15,2013-07-23 10:35:00,
2013-07-23 05:40:00,78.9,73.3,29.88,SSW,194,3.0,5.0,83,0.00,,,0.00,Wunderground v.1.15,2013-07-23 10:40:00,
2013-07-23 05:45:00,78.8,73.2,29.88,SSW,200,4.0,5.0,83,0.00,,,0.00,Wunderground v.1.15,2013-07-23 10:45:00,
2013-07-23 05:50:00,78.8,73.2,29.88,SSW,193,5.0,5.0,83,0.00,,,0.00,Wunderground v.1.15,2013-07-23 10:50:00,
2013-07-23 06:00:00,78.6,73.4,29.89,South,182,3.0,5.0,84,0.00,,,0.00,Wunderground v.1.15,2013-07-23 11:00:00,
2013-07-23 06:10:00,78.5,73.3,29.89,SSW,192,4.0,4.0,84,0.00,,,0.00,Wunderground v.1.15,2013-07-23 11:10:00,
2013-07-23 06:20:00,78.4,73.5,29.89,SSW,192,3.0,3.0,85,0.00,,,0.00,Wunderground v.1.15,2013-07-23 11:20:00,
2013-07-23 06:25:00,78.3,73.4,29.89,SSW,203,3.0,3.0,85,0.00,,,0.00,Wunderground v.1.15,2013-07-23 11:25:00,
2013-07-23 06:30:00,78.3,73.4,29.89,SSW,198,3.0,5.0,85,0.00,,,0.00,Wunderground v.1.15,2013-07-23 11:30:00,
2013-07-23 06:35:00,78.2,73.3,29.89,SSW,205,2.0,5.0,85,0.00,,,0.00,Wunderground v.1.15,2013-07-23 11:35:00,
2013-07-23 06:45:00,78.1,73.2,29.89,SSW,199,1.0,2.0,85,0.00,,,0.00,Wunderground v.1.15,2013-07-23 11:45:00,
2013-07-23 06:50:00,78.1,73.6,29.89,South,184,1.0,1.0,86,0.00,,,0.00,Wunderground v.1.15,2013-07-23 11:50:00,
2013-07-23 06:55:00,78.1,73.6,29.90,South,182,1.0,7.0,86,0.00,,,0.00,Wunderground v.1.15,2013-07-23 11:55:00,
2013-07-23 07:00:00,78.0,73.5,29.89,South,181,2.0,3.0,86,0.00,,,0.00,Wunderground v.1.15,2013-07-23 12:00:00,
2013-07-23 07:10:00,78.0,73.5,29.90,South,191,3.0,3.0,86,0.00,,,0.00,Wunderground v.1.15,2013-07-23 12:10:00,
2013-07-23 07:15:00,78.0,73.5,29.90,SSW,192,3.0,5.0,86,0.00,,,0.00,Wunderground v.1.15,2013-07-23 12:15:00,
2013-07-23 07:20:00,78.0,73.5,29.89,SE,143,3.0,3.0,86,0.00,,,0.00,Wunderground v.1.15,2013-07-23 12:20:00,
2013-07-23 07:25:00,78.1,73.9,29.90,South,190,2.0,3.0,87,0.00,,,0.00,Wunderground v.1.15,2013-07-23 12:25:00,
2013-07-23 07:35:00,78.2,74.0,29.90,SSW,206,3.0,6.0,87,0.00,,,0.00,Wunderground v.1.15,2013-07-23 12:35:00,
2013-07-23 07:40:00,78.4,74.2,29.90,South,188,2.0,7.0,87,0.00,,,0.00,Wunderground v.1.15,2013-07-23 12:40:00,
2013-07-23 07:45:00,78.5,74.0,29.90,SSW,199,1.0,7.0,86,0.00,,,0.00,Wunderground v.1.15,2013-07-23 12:45:00,
2013-07-23 07:50:00,78.7,74.2,29.90,South,188,2.0,3.0,86,0.00,,,0.00,Wunderground v.1.15,2013-07-23 12:50:00,
2013-07-23 08:00:00,79.1,74.5,29.91,SSW,198,2.0,2.0,86,0.00,,,0.00,Wunderground v.1.15,2013-07-23 13:00:00,
2013-07-23 08:10:00,79.5,74.6,29.91,SSW,194,2.0,2.0,85,0.00,,,0.00,Wunderground v.1.15,2013-07-23 13:10:00,
2013-07-23 08:15:00,79.7,74.8,29.91,SSW,205,3.0,3.0,85,0.00,,,0.00,Wunderground v.1.15,2013-07-23 13:15:00,
2013-07-23 08:20:00,80.2,74.9,29.91,South,188,2.0,2.0,84,0.00,,,0.00,Wunderground v.1.15,2013-07-23 13:20:00,
2013-07-23 08:25:00,80.7,75.1,29.91,SSE,162,2.0,9.0,83,0.00,,,0.00,Wunderground v.1.15,2013-07-23 13:25:00,
2013-07-23 08:30:00,81.1,75.1,29.91,South,188,3.0,3.0,82,0.00,,,0.00,Wunderground v.1.15,2013-07-23 13:30:00,
2013-07-23 08:35:00,81.6,75.6,29.91,SW,226,3.0,10.0,82,0.00,,,0.00,Wunderground v.1.15,2013-07-23 13:35:00,
2013-07-23 08:45:00,82.3,75.5,29.91,SSW,198,4.0,6.0,80,0.00,,,0.00,Wunderground v.1.15,2013-07-23 13:45:00,
2013-07-23 08:50:00,82.7,75.1,29.92,SSW,212,4.0,7.0,78,0.00,,,0.00,Wunderground v.1.15,2013-07-23 13:50:00,
2013-07-23 08:55:00,83.0,75.4,29.92,SSW,192,4.0,7.0,78,0.00,,,0.00,Wunderground v.1.15,2013-07-23 13:55:00,
2013-07-23 09:00:00,83.5,75.9,29.92,SSW,207,2.0,2.0,78,0.00,,,0.00,Wunderground v.1.15,2013-07-23 14:00:00,
2013-07-23 09:10:00,84.1,75.7,29.92,SW,215,4.0,9.0,76,0.00,,,0.00,Wunderground v.1.15,2013-07-23 14:10:00,
2013-07-23 09:15:00,84.4,75.6,29.92,SSW,205,5.0,9.0,75,0.00,,,0.00,Wunderground v.1.15,2013-07-23 14:15:00,
2013-07-23 09:20:00,84.7,75.9,29.92,SSW,209,5.0,7.0,75,0.00,,,0.00,Wunderground v.1.15,2013-07-23 14:20:00,
2013-07-23 09:30:00,85.4,76.2,29.92,SSW,195,3.0,3.0,74,0.00,,,0.00,Wunderground v.1.15,2013-07-23 14:30:00,
2013-07-23 09:35:00,85.7,76.0,29.92,SW,218,3.0,3.0,73,0.00,,,0.00,Wunderground v.1.15,2013-07-23 14:35:00,
2013-07-23 09:40:00,85.8,76.1,29.92,SW,218,4.0,4.0,73,0.00,,,0.00,Wunderground v.1.15,2013-07-23 14:40:00,
2013-07-23 09:45:00,86.0,75.9,29.91,SW,231,5.0,5.0,72,0.00,,,0.00,Wunderground v.1.15,2013-07-23 14:45:00,
2013-07-23 09:50:00,86.3,76.2,29.91,South,174,3.0,12.0,72,0.00,,,0.00,Wunderground v.1.15,2013-07-23 14:50:00,
2013-07-23 10:00:00,86.6,76.1,29.91,SSW,194,5.0,7.0,71,0.00,,,0.00,Wunderground v.1.15,2013-07-23 15:00:00,
2013-07-23 10:10:00,86.9,76.4,29.91,SW,217,5.0,5.0,71,0.00,,,0.00,Wunderground v.1.15,2013-07-23 15:10:00,
2013-07-23 10:15:00,87.1,76.5,29.91,SW,216,5.0,5.0,71,0.00,,,0.00,Wunderground v.1.15,2013-07-23 15:15:00,
2013-07-23 10:20:00,87.5,76.5,29.91,SSW,194,4.0,4.0,70,0.00,,,0.00,Wunderground v.1.15,2013-07-23 15:20:00,
2013-07-23 10:25:00,87.8,76.8,29.91,SW,215,4.0,5.0,70,0.00,,,0.00,Wunderground v.1.15,2013-07-23 15:25:00,
2013-07-23 10:30:00,88.1,76.2,29.91,South,191,4.0,6.0,68,0.00,,,0.00,Wunderground v.1.15,2013-07-23 15:30:00,
2013-07-23 10:40:00,88.5,77.0,29.92,SSW,213,3.0,11.0,69,0.00,,,0.00,Wunderground v.1.15,2013-07-23 15:40:00,
2013-07-23 10:45:00,88.5,77.0,29.91,SW,228,4.0,11.0,69,0.00,,,0.00,Wunderground v.1.15,2013-07-23 15:45:00,
2013-07-23 10:50:00,88.9,77.4,29.92,SSW,198,4.0,4.0,69,0.00,,,0.00,Wunderground v.1.15,2013-07-23 15:50:00,
2013-07-23 10:55:00,89.2,77.3,29.92,SSW,206,3.0,4.0,68,0.00,,,0.00,Wunderground v.1.15,2013-07-23 15:55:00,
2013-07-23 11:00:00,89.3,77.3,29.92,SW,231,5.0,8.0,68,0.00,,,0.00,Wunderground v.1.15,2013-07-23 16:00:00,
2013-07-23 11:10:00,89.6,77.2,29.92,SW,217,4.0,4.0,67,0.00,,,0.00,Wunderground v.1.15,2013-07-23 16:10:00,
2013-07-23 11:15:00,89.2,77.3,29.92,SSW,212,5.0,5.0,68,0.00,,,0.00,Wunderground v.1.15,2013-07-23 16:15:00,
2013-07-23 11:25:00,89.5,77.5,29.92,SW,217,4.0,10.0,68,0.00,,,0.00,Wunderground v.1.15,2013-07-23 16:25:00,
2013-07-23 11:30:00,89.7,77.3,29.92,WSW,238,5.0,5.0,67,0.00,,,0.00,Wunderground v.1.15,2013-07-23 16:30:00,
2013-07-23 11:35:00,90.3,77.4,29.91,SW,224,4.0,5.0,66,0.00,,,0.00,Wunderground v.1.15,2013-07-23 16:35:00,
2013-07-23 11:40:00,90.6,77.7,29.91,SSW,202,3.0,3.0,66,0.00,,,0.00,Wunderground v.1.15,2013-07-23 16:40:00,
2013-07-23 11:45:00,90.6,78.1,29.91,SSW,200,4.0,5.0,67,0.00,,,0.00,Wunderground v.1.15,2013-07-23 16:45:00,
2013-07-23 11:55:00,90.2,77.8,29.91,SSW,192,5.0,6.0,67,0.00,,,0.00,Wunderground v.1.15,2013-07-23 16:55:00,
2013-07-23 12:00:00,90.6,77.7,29.91,SW,225,5.0,5.0,66,0.00,,,0.00,Wunderground v.1.15,2013-07-23 17:00:00,
2013-07-23 12:10:00,91.0,78.1,29.90,South,186,5.0,12.0,66,0.00,,,0.00,Wunderground v.1.15,2013-07-23 17:10:00,
2013-07-23 12:15:00,91.2,77.8,29.90,South,182,6.0,12.0,65,0.00,,,0.00,Wunderground v.1.15,2013-07-23 17:15:00,
2013-07-23 12:20:00,91.7,78.3,29.90,SSW,209,5.0,9.0,65,0.00,,,0.00,Wunderground v.1.15,2013-07-23 17:20:00,
2013-07-23 12:25:00,91.7,78.3,29.90,SSE,165,3.0,9.0,65,0.00,,,0.00,Wunderground v.1.15,2013-07-23 17:25:00,
2013-07-23 12:35:00,92.6,78.6,29.90,South,186,5.0,7.0,64,0.00,,,0.00,Wunderground v.1.15,2013-07-23 17:35:00,
2013-07-23 12:40:00,92.9,77.5,29.89,SSW,202,4.0,6.0,61,0.00,,,0.00,Wunderground v.1.15,2013-07-23 17:40:00,
2013-07-23 12:45:00,92.7,77.8,29.89,SSW,202,5.0,6.0,62,0.00,,,0.00,Wunderground v.1.15,2013-07-23 17:45:00,
2013-07-23 12:50:00,92.3,78.4,29.89,SSW,201,4.0,4.0,64,0.00,,,0.00,Wunderground v.1.15,2013-07-23 17:50:00,
2013-07-23 12:55:00,92.9,77.5,29.89,SSW,207,4.0,4.0,61,0.00,,,0.00,Wunderground v.1.15,2013-07-23 17:55:00,
2013-07-23 13:00:00,93.1,78.1,29.88,SSW,211,5.0,5.0,62,0.00,,,0.00,Wunderground v.1.15,2013-07-23 18:00:00,
2013-07-23 13:10:00,93.5,78.0,29.88,SSW,211,4.0,5.0,61,0.00,,,0.00,Wunderground v.1.15,2013-07-23 18:10:00,
2013-07-23 13:20:00,93.9,78.9,29.88,South,183,6.0,6.0,62,0.00,,,0.00,Wunderground v.1.15,2013-07-23 18:20:00,
2013-07-23 13:25:00,94.1,78.6,29.88,South,178,4.0,10.0,61,0.00,,,0.00,Wunderground v.1.15,2013-07-23 18:25:00,
2013-07-23 13:30:00,94.5,78.5,29.88,SW,217,4.0,5.0,60,0.00,,,0.00,Wunderground v.1.15,2013-07-23 18:30:00,
2013-07-23 13:35:00,94.3,77.8,29.88,SSW,200,5.0,5.0,59,0.00,,,0.00,Wunderground v.1.15,2013-07-23 18:35:00,
2013-07-23 13:45:00,94.6,77.5,29.88,SW,228,4.0,5.0,58,0.00,,,0.00,Wunderground v.1.15,2013-07-23 18:45:00,
2013-07-23 13:50:00,95.0,77.9,29.88,SW,221,5.0,6.0,58,0.00,,,0.00,Wunderground v.1.15,2013-07-23 18:50:00,
2013-07-23 13:55:00,94.9,78.3,29.88,SSE,157,5.0,6.0,59,0.00,,,0.00,Wunderground v.1.15,2013-07-23 18:55:00,
2013-07-23 14:00:00,95.3,79.2,29.87,SW,225,4.0,4.0,60,0.00,,,0.00,Wunderground v.1.15,2013-07-23 19:00:00,
2013-07-23 14:10:00,94.8,77.7,29.87,SSW,196,6.0,8.0,58,0.00,,,0.00,Wunderground v.1.15,2013-07-23 19:10:00,
2013-07-23 14:15:00,94.8,77.2,29.87,SW,219,6.0,9.0,57,0.00,,,0.00,Wunderground v.1.15,2013-07-23 19:15:00,
2013-07-23 14:20:00,95.3,78.2,29.87,SSW,196,5.0,7.0,58,0.00,,,0.00,Wunderground v.1.15,2013-07-23 19:20:00,
2013-07-23 14:30:00,95.3,78.7,29.86,SSE,159,7.0,7.0,59,0.00,,,0.00,Wunderground v.1.15,2013-07-23 19:30:00,
2013-07-23 14:35:00,95.3,77.7,29.86,South,185,6.0,10.0,57,0.00,,,0.00,Wunderground v.1.15,2013-07-23 19:35:00,
2013-07-23 14:40:00,95.5,77.8,29.86,SSW,196,7.0,7.0,57,0.00,,,0.00,Wunderground v.1.15,2013-07-23 19:40:00,
2013-07-23 14:45:00,95.5,77.3,29.85,SW,234,7.0,8.0,56,0.00,,,0.00,Wunderground v.1.15,2013-07-23 19:45:00,
2013-07-23 14:50:00,95.8,77.0,29.86,SW,224,7.0,8.0,55,0.00,,,0.00,Wunderground v.1.15,2013-07-23 19:50:00,
2013-07-23 14:55:00,95.7,77.5,29.85,South,184,9.0,9.0,56,0.00,,,0.00,Wunderground v.1.15,2013-07-23 19:55:00,
2013-07-23 15:00:00,96.0,77.8,29.85,SSE,154,7.0,8.0,56,0.00,,,0.00,Wunderground v.1.15,2013-07-23 20:00:00,
2013-07-23 15:10:00,96.1,76.2,29.85,SW,219,8.0,8.0,53,0.00,,,0.00,Wunderground v.1.15,2013-07-23 20:10:00,
2013-07-23 15:15:00,96.2,77.4,29.85,SW,231,8.0,14.0,55,0.00,,,0.00,Wunderground v.1.15,2013-07-23 20:15:00,
2013-07-23 15:20:00,96.9,78.1,29.84,WSW,248,7.0,13.0,55,0.00,,,0.00,Wunderground v.1.15,2013-07-23 20:20:00,
2013-07-23 15:25:00,96.9,77.5,29.84,South,180,7.0,13.0,54,0.00,,,0.00,Wunderground v.1.15,2013-07-23 20:25:00,
2013-07-23 15:35:00,96.2,76.9,29.83,South,171,7.0,15.0,54,0.00,,,0.00,Wunderground v.1.15,2013-07-23 20:35:00,
2013-07-23 15:40:00,95.8,76.5,29.83,SSW,196,8.0,8.0,54,0.00,,,0.00,Wunderground v.1.15,2013-07-23 20:40:00,
2013-07-23 15:45:00,95.9,76.0,29.82,South,188,8.0,8.0,53,0.00,,,0.00,Wunderground v.1.15,2013-07-23 20:45:00,
2013-07-23 15:50:00,96.5,76.6,29.82,SSW,211,7.0,7.0,53,0.00,,,0.00,Wunderground v.1.15,2013-07-23 20:50:00,
2013-07-23 16:00:00,96.4,74.7,29.82,South,173,8.0,13.0,50,0.00,,,0.00,Wunderground v.1.15,2013-07-23 21:00:00,
2013-07-23 16:10:00,96.5,75.4,29.81,South,177,8.0,10.0,51,0.00,,,0.00,Wunderground v.1.15,2013-07-23 21:10:00,
2013-07-23 16:20:00,96.3,75.2,29.81,South,182,7.0,8.0,51,0.00,,,0.00,Wunderground v.1.15,2013-07-23 21:20:00,
2013-07-23 16:25:00,96.6,75.5,29.81,SSW,194,8.0,8.0,51,0.00,,,0.00,Wunderground v.1.15,2013-07-23 21:25:00,
2013-07-23 16:30:00,96.4,74.7,29.81,SSW,202,8.0,8.0,50,0.00,,,0.00,Wunderground v.1.15,2013-07-23 21:30:00,
2013-07-23 16:35:00,96.2,75.7,29.80,SSW,198,8.0,8.0,52,0.00,,,0.00,Wunderground v.1.15,2013-07-23 21:35:00,
2013-07-23 16:45:00,96.9,75.8,29.80,SSE,155,8.0,9.0,51,0.00,,,0.00,Wunderground v.1.15,2013-07-23 21:45:00,
2013-07-23 16:55:00,97.2,75.5,29.81,SSW,198,7.0,8.0,50,0.00,,,0.00,Wunderground v.1.15,2013-07-23 21:55:00,
2013-07-23 17:00:00,97.6,75.2,29.81,South,190,7.0,11.0,49,0.00,,,0.00,Wunderground v.1.15,2013-07-23 22:00:00,
2013-07-23 17:10:00,97.8,74.8,29.81,South,182,7.0,7.0,48,0.00,,,0.00,Wunderground v.1.15,2013-07-23 22:10:00,
2013-07-23 17:20:00,97.4,73.8,29.81,ESE,108,8.0,9.0,47,0.00,,,0.00,Wunderground v.1.15,2013-07-23 22:20:00,
2013-07-23 17:25:00,97.4,74.4,29.81,South,173,9.0,9.0,48,0.00,,,0.00,Wunderground v.1.15,2013-07-23 22:25:00,
2013-07-23 17:35:00,97.2,74.2,29.81,SSE,168,6.0,7.0,48,0.00,,,0.00,Wunderground v.1.15,2013-07-23 22:35:00,
2013-07-23 17:40:00,97.4,74.4,29.80,SSE,153,5.0,11.0,48,0.00,,,0.00,Wunderground v.1.15,2013-07-23 22:40:00,
2013-07-23 17:50:00,97.3,73.7,29.80,SSW,202,8.0,11.0,47,0.00,,,0.00,Wunderground v.1.15,2013-07-23 22:50:00,
2013-07-23 17:55:00,97.1,72.2,29.80,SSW,208,7.0,11.0,45,0.00,,,0.00,Wunderground v.1.15,2013-07-23 22:55:00,
2013-07-23 18:00:00,96.9,72.7,29.80,SSW,199,7.0,7.0,46,0.00,,,0.00,Wunderground v.1.15,2013-07-23 23:00:00,
2013-07-23 18:10:00,96.7,71.9,29.80,SW,217,8.0,8.0,45,0.00,,,0.00,Wunderground v.1.15,2013-07-23 23:10:00,
2013-07-23 18:15:00,96.7,71.9,29.79,SW,229,8.0,8.0,45,0.00,,,0.00,Wunderground v.1.15,2013-07-23 23:15:00,
2013-07-23 18:20:00,96.7,71.2,29.79,SSW,209,6.0,11.0,44,0.00,,,0.00,Wunderground v.1.15,2013-07-23 23:20:00,
2013-07-23 18:25:00,96.7,71.2,29.78,SW,223,6.0,11.0,44,0.00,,,0.00,Wunderground v.1.15,2013-07-23 23:25:00,
2013-07-23 18:30:00,96.7,71.2,29.78,SSW,213,7.0,7.0,44,0.00,,,0.00,Wunderground v.1.15,2013-07-23 23:30:00,
2013-07-23 19:00:00,95.5,70.8,29.77,SSW,212,7.0,7.0,45,0.00,,,0.00,Wunderground v.1.15,2013-07-24 00:00:00,
2013-07-23 19:10:00,95.2,70.5,29.77,WSW,237,5.0,5.0,45,0.00,,,0.00,Wunderground v.1.15,2013-07-24 00:10:00,
2013-07-23 19:15:00,95.1,71.1,29.77,SW,218,6.0,10.0,46,0.00,,,0.00,Wunderground v.1.15,2013-07-24 00:15:00,
2013-07-23 19:25:00,94.6,69.3,29.77,SW,223,7.0,8.0,44,0.00,,,0.00,Wunderground v.1.15,2013-07-24 00:25:00,
2013-07-23 19:30:00,94.3,69.7,29.78,SSW,207,5.0,5.0,45,0.00,,,0.00,Wunderground v.1.15,2013-07-24 00:30:00,
2013-07-23 19:40:00,93.7,68.5,29.78,SSW,210,4.0,4.0,44,0.00,,,0.00,Wunderground v.1.15,2013-07-24 00:40:00,
2013-07-23 19:45:00,93.5,68.3,29.77,SSW,204,4.0,7.0,44,0.00,,,0.00,Wunderground v.1.15,2013-07-24 00:45:00,
2013-07-23 19:55:00,93.0,67.9,29.77,South,189,5.0,5.0,44,0.00,,,0.00,Wunderground v.1.15,2013-07-24 00:55:00,
2013-07-23 20:00:00,92.7,67.6,29.78,SSW,203,4.0,4.0,44,0.00,,,0.00,Wunderground v.1.15,2013-07-24 01:00:00,
2013-07-23 20:10:00,92.4,68.0,29.78,SSW,195,3.0,7.0,45,0.00,,,0.00,Wunderground v.1.15,2013-07-24 01:10:00,
2013-07-23 20:15:00,92.1,67.7,29.78,South,188,2.0,7.0,45,0.00,,,0.00,Wunderground v.1.15,2013-07-24 01:15:00,
2013-07-23 20:20:00,91.9,67.5,29.78,SSW,192,2.0,5.0,45,0.00,,,0.00,Wunderground v.1.15,2013-07-24 01:20:00,
2013-07-23 20:30:00,91.5,67.2,29.78,South,188,1.0,1.0,45,0.00,,,0.00,Wunderground v.1.15,2013-07-24 01:30:00,
2013-07-23 20:35:00,91.4,68.3,29.79,South,175,1.0,1.0,47,0.00,,,0.00,Wunderground v.1.15,2013-07-24 01:35:00,
2013-07-23 20:45:00,90.9,68.5,29.78,South,172,1.0,2.0,48,0.00,,,0.00,Wunderground v.1.15,2013-07-24 01:45:00,
2013-07-23 20:55:00,90.4,68.0,29.79,South,180,3.0,7.0,48,0.00,,,0.00,Wunderground v.1.15,2013-07-24 01:55:00,
2013-07-23 21:01:00,90.2,67.9,29.78,South,186,3.0,6.0,48,0.00,,,0.00,Wunderground v.1.15,2013-07-24 02:01:00,
2013-07-23 21:10:00,89.9,67.6,29.78,South,180,4.0,4.0,48,0.00,,,0.00,Wunderground v.1.15,2013-07-24 02:10:00,
2013-07-23 21:15:00,89.7,68.0,29.78,South,183,2.0,4.0,49,0.00,,,0.00,Wunderground v.1.15,2013-07-24 02:15:00,
2013-07-23 21:25:00,89.2,67.5,29.78,South,187,2.0,4.0,49,0.00,,,0.00,Wunderground v.1.15,2013-07-24 02:25:00,
2013-07-23 21:35:00,88.8,67.2,29.78,South,180,2.0,3.0,49,0.00,,,0.00,Wunderground v.1.15,2013-07-24 02:35:00,
2013-07-23 21:40:00,88.6,67.0,29.78,South,180,2.0,2.0,49,0.00,,,0.00,Wunderground v.1.15,2013-07-24 02:40:00,
2013-07-23 21:50:00,88.2,67.2,29.79,South,184,2.0,6.0,50,0.00,,,0.00,Wunderground v.1.15,2013-07-24 02:50:00,
2013-07-23 22:00:00,88.0,67.6,29.79,South,186,1.0,1.0,51,0.00,,,0.00,Wunderground v.1.15,2013-07-24 03:00:00,
2013-07-23 22:10:00,87.7,67.3,29.80,South,182,1.0,4.0,51,0.00,,,0.00,Wunderground v.1.15,2013-07-24 03:10:00,
2013-07-23 22:15:00,87.6,67.2,29.80,South,174,2.0,7.0,51,0.00,,,0.00,Wunderground v.1.15,2013-07-24 03:15:00,
2013-07-23 22:20:00,87.5,67.1,29.80,SSW,194,2.0,2.0,51,0.00,,,0.00,Wunderground v.1.15,2013-07-24 03:20:00,
2013-07-23 22:25:00,87.4,67.6,29.81,South,180,1.0,2.0,52,0.00,,,0.00,Wunderground v.1.15,2013-07-24 03:25:00,
2013-07-23 22:35:00,87.0,67.2,29.81,South,182,1.0,7.0,52,0.00,,,0.00,Wunderground v.1.15,2013-07-24 03:35:00,
2013-07-23 22:40:00,86.8,67.6,29.81,South,174,2.0,6.0,53,0.00,,,0.00,Wunderground v.1.15,2013-07-24 03:40:00,
2013-07-23 22:50:00,86.4,67.2,29.82,South,169,2.0,5.0,53,0.00,,,0.00,Wunderground v.1.15,2013-07-24 03:50:00,
2013-07-23 22:55:00,86.1,67.5,29.82,South,171,2.0,5.0,54,0.00,,,0.00,Wunderground v.1.15,2013-07-24 03:55:00,
2013-07-23 23:01:00,85.9,67.3,29.83,SSE,167,2.0,5.0,54,0.00,,,0.00,Wunderground v.1.15,2013-07-24 04:01:00,
2013-07-23 23:05:00,85.8,67.2,29.82,South,177,3.0,5.0,54,0.00,,,0.00,Wunderground v.1.15,2013-07-24 04:05:00,
2013-07-23 23:10:00,85.7,67.1,29.82,South,190,4.0,4.0,54,0.00,,,0.00,Wunderground v.1.15,2013-07-24 04:10:00,
2013-07-23 23:15:00,85.6,67.6,29.82,South,188,3.0,4.0,55,0.00,,,0.00,Wunderground v.1.15,2013-07-24 04:15:00,
2013-07-23 23:20:00,85.6,67.0,29.82,South,173,3.0,3.0,54,0.00,,,0.00,Wunderground v.1.15,2013-07-24 04:20:00,
2013-07-23 23:25:00,85.5,67.5,29.82,SSW,192,3.0,3.0,55,0.00,,,0.00,Wunderground v.1.15,2013-07-24 04:25:00,
2013-07-23 23:30:00,85.4,67.4,29.81,SSW,197,3.0,3.0,55,0.00,,,0.00,Wunderground v.1.15,2013-07-24 04:30:00,
2013-07-23 23:35:00,85.3,67.3,29.82,South,173,3.0,5.0,55,0.00,,,0.00,Wunderground v.1.15,2013-07-24 04:35:00,
2013-07-23 23:45:00,85.2,67.7,29.81,South,179,2.0,5.0,56,0.00,,,0.00,Wunderground v.1.15,2013-07-24 04:45:00,
2013-07-23 23:50:00,85.0,67.5,29.82,South,176,2.0,2.0,56,0.00,,,0.00,Wunderground v.1.15,2013-07-24 04:50:00,
2013-07-23 23:55:00,84.9,67.5,29.81,South,184,1.0,2.0,56,0.00,,,0.00,Wunderground v.1.15,2013-07-24 04:55:00,